TimeCST,TemperatureF,Dew PointF,Humidity,Sea Level PressureIn,VisibilityMPH,Wind Direction,Wind SpeedMPH,Gust SpeedMPH,PrecipitationIn,Events,Conditions,WindDirDegrees,DateUTC
12:15 AM,10.4,5.0,79,30.25,10.0,Calm,Calm,-,N/A,,Clear,0,2013-03-02 06:15:00
12:35 AM,5.0,1.4,85,30.25,10.0,Calm,Calm,-,N/A,,Clear,0,2013-03-02 06:35:00
1:15 AM,8.6,5.0,85,30.25,10.0,Calm,Calm,-,N/A,,Clear,0,2013-03-02 07:15:00
1:35 AM,8.6,5.0,85,30.25,10.0,Calm,Calm,-,N/A,,Clear,0,2013-03-02 07:35:00
1:55 AM,8.6,5.0,85,30.25,10.0,Calm,Calm,-,N/A,,Clear,0,2013-03-02 07:55:00
2:15 AM,8.6,5.0,85,30.24,10.0,Calm,Calm,-,N/A,,Clear,0,2013-03-02 08:15:00
2:35 AM,8.6,5.0,85,30.23,10.0,Calm,Calm,-,N/A,,Clear,0,2013-03-02 08:35:00
2:55 AM,6.8,3.2,85,30.23,10.0,NNW,3.5,-,N/A,,Clear,330,2013-03-02 08:55:00
3:15 AM,6.8,3.2,85,30.23,10.0,Calm,Calm,-,N/A,,Clear,0,2013-03-02 09:15:00
3:55 AM,5.0,1.4,85,30.23,10.0,Calm,Calm,-,N/A,,Clear,0,2013-03-02 09:55:00
4:15 AM,5.0,3.2,92,30.23,10.0,Calm,Calm,-,N/A,,Clear,0,2013-03-02 10:15:00
4:35 AM,3.2,1.4,92,30.23,10.0,NW,3.5,-,N/A,,Clear,310,2013-03-02 10:35:00
4:55 AM,3.2,1.4,92,30.23,10.0,Calm,Calm,-,N/A,,Clear,0,2013-03-02 10:55:00
5:15 AM,-2.2,-5.8,85,30.23,10.0,Calm,Calm,-,N/A,,Clear,0,2013-03-02 11:15:00
5:35 AM,-5.8,-9.4,84,30.24,10.0,Calm,Calm,-,N/A,,Clear,0,2013-03-02 11:35:00
5:55 AM,-5.8,-7.6,92,30.23,10.0,Calm,Calm,-,N/A,,Clear,0,2013-03-02 11:55:00
6:15 AM,-5.8,-7.6,92,30.23,10.0,Calm,Calm,-,N/A,,Clear,0,2013-03-02 12:15:00
6:35 AM,-5.8,-9.4,84,30.23,10.0,Calm,Calm,-,N/A,,Clear,0,2013-03-02 12:35:00
6:55 AM,-7.6,-13.0,77,30.24,10.0,Calm,Calm,-,N/A,,Clear,0,2013-03-02 12:55:00
7:15 AM,-0.4,-4.0,85,30.23,10.0,Calm,Calm,-,N/A,,Clear,0,2013-03-02 13:15:00
7:35 AM,1.4,-4.0,78,30.23,10.0,Calm,Calm,-,N/A,,Clear,0,2013-03-02 13:35:00
7:55 AM,6.8,3.2,85,30.24,10.0,Calm,Calm,-,N/A,,Clear,0,2013-03-02 13:55:00
8:15 AM,8.6,5.0,85,30.24,10.0,Calm,Calm,-,N/A,,Clear,0,2013-03-02 14:15:00
8:35 AM,12.2,8.6,85,30.23,10.0,North,4.6,-,N/A,,Clear,350,2013-03-02 14:35:00
8:55 AM,14.0,10.4,86,30.23,10.0,North,5.8,-,N/A,,Clear,10,2013-03-02 14:55:00
9:15 AM,17.6,10.4,73,30.23,10.0,North,9.2,16.1,N/A,,Clear,360,2013-03-02 15:15:00
9:35 AM,17.6,8.6,68,30.23,10.0,North,11.5,-,N/A,,Clear,350,2013-03-02 15:35:00
9:55 AM,17.6,8.6,68,30.22,10.0,North,12.7,17.3,N/A,,Clear,360,2013-03-02 15:55:00
10:15 AM,19.4,8.6,63,30.21,10.0,North,6.9,-,N/A,,Clear,360,2013-03-02 16:15:00
10:35 AM,21.2,8.6,58,30.21,10.0,North,5.8,-,N/A,,Clear,350,2013-03-02 16:35:00
10:55 AM,21.2,8.6,58,30.21,10.0,North,6.9,-,N/A,,Clear,10,2013-03-02 16:55:00
11:15 AM,21.2,8.6,58,30.20,10.0,NNW,6.9,-,N/A,,Clear,340,2013-03-02 17:15:00
11:35 AM,23.0,6.8,50,30.20,10.0,North,6.9,-,N/A,,Clear,360,2013-03-02 17:35:00
11:55 AM,23.0,6.8,50,30.19,10.0,North,9.2,-,N/A,,Clear,360,2013-03-02 17:55:00
12:15 PM,24.8,6.8,46,30.18,10.0,NNE,8.1,-,N/A,,Clear,30,2013-03-02 18:15:00
12:35 PM,26.6,5.0,40,30.17,10.0,NNE,6.9,-,N/A,,Clear,30,2013-03-02 18:35:00
12:55 PM,26.6,5.0,40,30.17,10.0,NNW,8.1,-,N/A,,Clear,340,2013-03-02 18:55:00
1:15 PM,26.6,8.6,47,30.16,10.0,NW,10.4,-,N/A,,Clear,320,2013-03-02 19:15:00
1:35 PM,26.6,8.6,47,30.16,10.0,NNW,4.6,-,N/A,,Clear,330,2013-03-02 19:35:00
1:55 PM,26.6,8.6,47,30.15,10.0,NW,4.6,-,N/A,,Clear,310,2013-03-02 19:55:00
2:15 PM,26.6,8.6,47,30.15,10.0,NNW,6.9,-,N/A,,Clear,330,2013-03-02 20:15:00
2:35 PM,28.4,6.8,40,30.14,10.0,NNW,6.9,-,N/A,,Clear,330,2013-03-02 20:35:00
2:55 PM,28.4,5.0,37,30.14,10.0,NW,9.2,-,N/A,,Clear,310,2013-03-02 20:55:00
3:15 PM,28.4,5.0,37,30.13,10.0,WNW,4.6,-,N/A,,Clear,290,2013-03-02 21:15:00
3:35 PM,28.4,5.0,37,30.14,10.0,North,5.8,-,N/A,,Clear,350,2013-03-02 21:35:00
3:55 PM,28.4,5.0,37,30.13,10.0,NNW,6.9,-,N/A,,Clear,340,2013-03-02 21:55:00
4:15 PM,28.4,5.0,37,30.14,10.0,NNE,4.6,-,N/A,,Clear,20,2013-03-02 22:15:00
4:35 PM,28.4,3.2,34,30.14,10.0,North,5.8,-,N/A,,Clear,360,2013-03-02 22:35:00
4:55 PM,28.4,3.2,34,30.14,10.0,North,6.9,-,N/A,,Clear,350,2013-03-02 22:55:00
5:35 PM,26.6,3.2,37,30.14,10.0,North,5.8,-,N/A,,Clear,10,2013-03-02 23:35:00
5:55 PM,24.8,3.2,40,30.14,10.0,Calm,Calm,-,N/A,,Clear,0,2013-03-02 23:55:00
6:15 PM,23.0,3.2,43,30.14,10.0,Calm,Calm,-,N/A,,Clear,0,2013-03-03 00:15:00
6:35 PM,21.2,3.2,46,30.14,10.0,Calm,Calm,-,N/A,,Clear,0,2013-03-03 00:35:00
6:55 PM,17.6,3.2,53,30.14,10.0,Calm,Calm,-,N/A,,Clear,0,2013-03-03 00:55:00
7:15 PM,14.0,3.2,62,30.14,10.0,Calm,Calm,-,N/A,,Clear,0,2013-03-03 01:15:00
7:35 PM,17.6,5.0,58,30.14,10.0,Calm,Calm,-,N/A,,Clear,0,2013-03-03 01:35:00
7:55 PM,17.6,5.0,58,30.14,10.0,NNW,3.5,-,N/A,,Clear,340,2013-03-03 01:55:00
8:15 PM,17.6,5.0,58,30.14,10.0,Calm,Calm,-,N/A,,Scattered Clouds,0,2013-03-03 02:15:00
8:35 PM,17.6,5.0,58,30.14,10.0,NNW,3.5,-,N/A,,Mostly Cloudy,330,2013-03-03 02:35:00
8:55 PM,17.6,5.0,58,30.15,10.0,Calm,Calm,-,N/A,,Mostly Cloudy,0,2013-03-03 02:55:00
9:15 PM,17.6,5.0,58,30.14,10.0,Calm,Calm,-,N/A,,Clear,0,2013-03-03 03:15:00
9:35 PM,15.8,5.0,62,30.14,10.0,Calm,Calm,-,N/A,,Clear,0,2013-03-03 03:35:00
9:55 PM,14.0,5.0,67,30.14,10.0,Calm,Calm,-,N/A,,Clear,0,2013-03-03 03:55:00
10:15 PM,10.4,3.2,73,30.13,10.0,Calm,Calm,-,N/A,,Clear,0,2013-03-03 04:15:00
10:35 PM,12.2,3.2,67,30.12,10.0,Calm,Calm,-,N/A,,Scattered Clouds,0,2013-03-03 04:35:00
10:55 PM,8.6,1.4,73,30.12,10.0,Calm,Calm,-,N/A,,Mostly Cloudy,0,2013-03-03 04:55:00
11:15 PM,8.6,3.2,79,30.12,10.0,Calm,Calm,-,N/A,,Scattered Clouds,0,2013-03-03 05:15:00
11:35 PM,5.0,1.4,85,30.12,10.0,Calm,Calm,-,N/A,,Clear,0,2013-03-03 05:35:00
11:55 PM,5.0,1.4,85,30.12,10.0,Calm,Calm,-,N/A,,Clear,0,2013-03-03 05:55:00